SCP
0 0 0 0 0 0 0 0 0 0 0 0 0 0 0 0 0 0 0 0 0 0 0 0 0 0 0 0 0 0 0 0 0 0 0 0 0 0 0 0 0 0 0 0
0 0 0 0 0 0 0 0 0 0 0 0 0 0 0 0 0 0 0 0 0 0 0 0 0 0 0 0 0 0 0 0 0 0 0 0 0 0 0 0 0 0 0 0
0 0 0 0 0 0 0 0 0 0 0 0 0 0 0 0 0 0 0 0 0 0 0 0 0 0 0 0 0 0 0 0 0 0 0 0 0 0 0 0 0 0 0 0
0 0 0 0 0 0 0 0 0 0 0 0 0 0 0 0 0 0 0 0 0 0 0 0 0 0 0 0 0 0 0 0 0 0 0 0 0 0 0 0 0 0 0 0
0 0 0 0 0 0 0 0 0 0 0 0 0 0 0 0 0 0 0 0 0 0 0 0 0 0 0 0 0 0 0 0 0 0 0 0 0 0 0 0 0 0 0 0
0 0 0 0 0 0 0 0 0 0 0 0 0 0 0 0 0 0 0 0 0 0 0 0 0 0 0 0 0 0 0 0 0 0 0 0 0 0 0 0 0 0 0 0
0 0 0 0 0 0 0 0 0 0 0 0 0 0 0 0 0 0 0 0 0 0 0 0 0 0 0 0 0 0 0 0 0 0 0 0 0 0 0 0 0 0 0 0
0 0 0 0 0 0 0 0 0 0 0 0 0 0 0 0 0 0 0 0 0 0 0 0 0 0 0 0 0 0 0 0 0 0 0 0 0 0 0 0 0 0 0 0
0 0 0 0 0 0 0 0 0 0 0 0 0 0 0 0 0 0 0 0 0 0 0 0 0 0 0 0 0 0 0 0 0 0 0 0 0 0 0 0 0 0 0 0
0 0 0 0 0 0 0 0 0 0 0 0 0 0 0 0 0 0 0 0 0 0 0 0 0 0 0 0 0 0 0 0 0 0 0 0 0 0 0 0 0 0 0 0
0 0 0 0 0 0 0 0 0 0 0 0 0 0 0 0 0 0 0 0 0 0 0 0 0 0 0 0 0 0 0 0 0 0 0 0 0 0 0 0 0 0 0 0
0 0 0 0 0 0 0 0 0 0 0 0 0 0 0 0 0 0 0 0 0 0 0 0 0 0 0 0 0 0 0 0 0 0 0 0 0 0 0 0 0 0 0 0
0 0 0 0 0 0 0 0 0 0 0 0 0 0 0 0 0 0 0 0 0 0 0 0 0 0 0 0 0 0 0 0 0 0 0 0 0 0 0 0 0 0 0 0
0 0 0 0 0 0 0 0 0 0 0 0 0 0 0 0 0 0 0 0 0 0 0 0 0 0 0 0 0 0 0 0 0 0 0 0 0 0 0 0 0 0 0 0
0 0 0 0 0 0 0 0 0 0 0 0 0 0 0 0 0 0 0 0 0 0 0 0 0 0 0 0 0 0 0 0 0 0 0 0 0 0 0 0 0 0 0 0
0 0 0 0 0 0 0 0 0 0 0 0 0 0 0 0 0 0 0 0 0 0 0 0 0 0 0 0 0 0 0 0 0 0 0 0 0 0 0 0 0 0 0 0
0 0 0 0 0 0 0 0 0 0 0 0 0 0 0 0 0 0 0 0 0 0 0 0 0 0 0 0 0 0 0 0 0 0 0 0 0 0 0 0 0 0 0 0
0 0 0 0 0 0 0 0 0 0 0 0 0 0 0 0 0 0 0 0 0 0 0 0 0 0 0 0 0 0 0 0 0 0 0 0 0 0 0 0 0 0 0 0
0 0 0 0 0 0 0 0 0 0 0 0 0 0 0 0 0 0 0 0 0 0 0 0 0 0 0 0 0 0 0 0 0 0 0 0 0 0 0 0 0 0 0 0
0 0 0 0 0 0 0 0 0 0 0 0 0 0 0 0 0 0 0 0 0 0 0 0 0 0 0 0 0 0 0 0 0 0 0 0 0 0 0 0 0 0 0 0
0 0 0 0 0 0 0 0 0 0 0 0 0 0 0 0 0 0 0 0 0 0 0 0 0 0 0 0 0 0 0 0 0 0 0 0 0 0 0 0 0 0 0 0
0 0 0 0 0 0 0 0 0 0 0 0 0 0 0 0 0 0 0 0 0 0 0 0 0 0 0 0 0 0 0 0 0 0 0 0 0 0 0 0 1 1 1 1
0 0 0 0 0 0 0 0 0 0 0 0 0 0 0 0 0 0 0 0 0 0 0 0 0 0 0 0 0 0 0 0 0 0 0 0 0 0 0 0 1 1 0 0
0 0 0 0 0 0 0 0 0 0 0 0 0 0 0 0 0 0 0 0 0 0 0 0 0 0 0 0 0 0 0 0 0 0 0 0 0 0 0 0 0 0 0 0
0 0 0 0 0 0 0 0 0 0 0 0 0 0 0 0 0 0 0 0 0 0 0 0 0 0 0 0 0 0 0 0 0 0 0 0 0 0 0 0 0 0 0 0
0 0 0 0 0 0 0 0 0 0 0 0 0 0 0 0 0 0 0 0 0 0 0 0 0 0 0 0 0 0 0 0 0 0 0 0 0 0 0 0 0 0 0 0
Wind_Speed
4 4 4 4 4 5 3 3 2 1 2 4 5 5 7 7 6 6 6 6 6 6 6 6 5 5 4 4 4 4 4 3 3 2 2 2 2 2 2 3 4 4 4 4
4 5 4 2 2 4 5 5 4 2 2 3 4 5 6 7 8 6 6 6 7 6 6 6 6 5 4 4 3 3 3 3 3 2 2 2 2 2 3 2 3 3 3 4
4 2 2 3 4 6 6 6 4 2 2 6 6 6 7 8 6 6 4 4 5 7 7 7 5 5 4 3 3 2 3 4 3 3 2 3 2 2 2 2 2 3 3 3
5 3 3 4 5 7 5 4 4 5 5 5 7 5 6 8 7 7 5 4 4 6 6 7 6 5 4 3 3 3 3 3 3 3 3 3 2 2 1 1 1 2 3 3
4 3 3 4 4 5 5 5 6 8 8 8 8 6 4 8 7 7 6 5 5 6 6 6 6 5 4 3 2 3 3 3 3 3 3 2 2 2 1 2 2 2 2 2
5 4 3 4 4 4 6 7 9 8 7 8 7 5 2 5 6 7 7 6 6 6 5 5 6 5 4 3 3 2 3 3 3 2 3 3 3 2 2 2 2 1 1 1
6 6 3 3 5 5 6 6 4 4 5 4 3 3 1 5 5 6 7 7 6 6 6 6 6 5 3 3 3 3 3 3 3 2 2 2 3 3 3 2 2 1 1 1
6 4 3 3 4 5 5 5 4 4 4 4 3 2 4 6 5 5 6 6 6 7 6 6 6 5 4 4 3 3 2 2 2 2 2 2 2 2 2 2 2 1 1 1
5 2 1 2 3 5 5 5 6 7 9 7 2 3 5 5 5 5 6 6 6 6 5 5 5 5 4 4 3 3 3 2 2 2 2 2 2 2 2 2 2 2 1 2
7 6 3 2 4 5 5 5 4 5 5 5 3 1 3 5 4 4 5 6 5 6 5 5 4 4 4 3 2 2 2 2 2 2 2 2 2 3 2 2 3 2 1 2
7 7 4 3 3 3 4 4 5 5 4 4 4 1 4 4 3 3 4 5 5 5 5 5 4 4 3 3 3 2 2 2 2 2 2 2 2 2 2 2 2 2 2 2
4 6 7 4 2 0 3 4 5 5 5 5 4 1 4 4 4 4 4 4 4 3 3 4 4 4 3 3 3 2 3 2 2 2 2 2 2 2 2 2 2 2 1 1
5 5 6 3 3 2 3 4 5 6 5 5 5 0 3 4 4 4 3 3 3 3 3 3 4 3 3 2 2 2 2 3 2 2 2 2 2 2 3 2 2 2 1 1
4 7 6 6 5 4 5 5 5 5 4 5 5 3 2 2 3 3 2 2 2 3 2 2 3 3 3 3 2 2 1 2 2 2 2 2 2 2 3 2 2 2 1 1
4 8 8 8 8 7 6 7 7 7 7 7 6 4 4 3 3 3 2 2 2 2 2 2 2 1 1 2 2 2 1 1 1 2 2 2 2 2 2 2 2 1 1 2
5 8 9 10 8 7 8 7 7 7 6 7 6 4 3 3 4 3 3 2 2 2 2 2 1 1 1 0 1 1 1 2 1 1 2 2 2 3 3 2 2 2 1 1
5 8 8 8 7 8 7 4 3 3 3 4 5 4 3 3 3 3 3 2 3 2 2 2 2 1 0 1 1 1 1 1 2 2 1 2 3 3 3 3 2 2 2 2
7 7 6 7 7 8 1 2 2 2 2 3 3 3 3 4 3 2 3 3 3 2 2 2 2 1 1 1 1 1 2 2 2 2 2 2 2 2 3 3 3 3 2 2
6 6 6 6 7 6 2 1 2 3 2 3 3 2 3 4 3 3 4 4 3 2 2 1 2 2 2 1 1 2 2 2 2 2 2 2 2 2 3 3 3 3 2 2
4 5 5 5 6 6 1 2 3 3 2 3 3 2 2 3 3 2 3 3 3 2 1 1 2 2 2 1 1 1 2 2 2 2 2 2 2 3 3 3 3 2 2 2
4 5 6 7 7 3 2 2 1 1 1 3 3 2 3 3 3 3 4 3 3 2 1 1 1 2 2 2 1 1 1 1 1 1 1 2 2 2 3 2 2 2 2 2
4 4 5 5 6 3 3 1 1 2 3 4 4 4 3 4 4 3 3 3 3 3 1 1 1 2 2 2 2 1 1 1 1 1 1 2 2 2 2 2 2 2 2 2
3 2 2 2 1 2 2 2 2 2 2 3 3 3 3 3 3 3 3 3 3 3 1 1 1 1 2 2 2 2 2 1 0 1 1 2 2 2 1 2 2 2 2 2
2 2 3 3 2 1 1 2 3 3 3 3 3 3 3 3 3 3 3 3 3 2 1 1 1 1 1 2 2 2 2 1 1 1 1 2 1 1 1 1 1 2 2 2
3 3 4 5 3 1 1 2 2 2 3 3 3 3 3 3 3 3 3 3 3 3 2 1 1 1 1 1 2 2 2 1 1 1 1 1 1 1 1 1 1 1 2 3
4 5 5 4 2 3 2 2 2 3 2 2 3 4 3 3 3 3 3 3 3 2 2 1 1 2 2 2 2 2 2 2 1 1 1 1 1 1 1 1 0 0 1 2
Wind_Direction
219 233 248 246 246 281 291 277 268 211 188 234 222 204 183 173 182 185 170 163 157 155 154 143 136 126 124 118 110 108 107 96 93 88 85 84 76 65 55 53 43 39 49 51
234 243 263 281 281 271 278 275 260 195 190 251 247 223 188 180 190 188 179 168 160 154 148 140 139 136 138 128 111 109 110 102 101 95 105 106 88 76 73 56 47 36 41 45
255 282 275 278 273 264 258 281 282 271 248 254 253 237 202 179 177 169 173 163 158 158 155 145 144 142 136 127 125 130 116 106 100 101 86 87 77 72 70 70 57 37 40 50
252 242 260 266 269 279 272 301 301 279 263 246 240 252 208 174 173 178 177 170 164 156 151 144 144 136 133 131 136 135 124 121 120 123 113 113 112 112 118 105 93 67 49 50
267 270 266 271 280 290 298 302 285 270 265 265 245 252 201 166 170 172 168 167 155 148 146 142 139 132 133 129 129 137 134 131 125 120 131 130 120 128 112 91 87 77 53 54
262 267 270 283 281 277 285 278 265 256 256 255 242 244 205 165 167 161 158 156 148 148 143 138 130 127 133 135 132 132 126 124 130 143 150 138 129 124 110 100 100 94 70 40
240 225 218 276 279 257 264 276 270 247 232 247 206 222 116 121 139 149 151 146 145 148 143 137 132 132 136 133 133 138 141 151 155 159 149 148 140 149 147 139 132 121 107 68
271 232 206 231 266 285 270 268 283 294 289 287 227 193 103 101 113 118 124 131 135 144 147 145 145 147 147 144 145 149 146 151 156 162 162 145 143 147 143 144 137 142 133 130
313 299 187 205 249 267 276 270 277 280 281 280 243 133 117 109 117 127 126 126 132 141 147 150 148 144 144 149 158 162 150 150 154 168 168 146 135 135 145 148 132 127 125 139
310 301 259 195 238 237 268 292 293 281 288 285 271 170 144 143 131 140 147 143 145 146 149 147 145 148 152 154 167 162 155 166 164 146 155 139 134 141 145 132 124 129 151 135
302 287 263 209 222 262 245 260 269 274 269 278 292 49 75 124 133 141 137 135 141 144 147 149 149 148 149 155 169 172 168 168 155 152 154 155 153 147 141 129 129 142 160 156
307 290 280 237 177 204 290 278 277 281 290 292 286 101 73 74 68 84 97 108 115 127 134 141 143 142 142 153 169 175 173 171 168 163 158 160 152 149 150 139 141 145 164 182
324 285 287 244 176 198 264 280 288 293 291 287 283 194 72 59 57 65 91 109 120 124 127 132 134 141 153 159 169 182 186 170 168 171 156 150 155 151 146 146 158 164 167 182
288 272 277 285 305 307 279 283 285 282 280 286 292 307 13 35 54 59 82 95 111 125 132 126 124 141 168 173 178 184 182 153 161 176 161 153 161 150 146 152 159 174 169 176
270 273 277 281 291 289 286 282 279 273 280 285 299 315 335 357 31 42 47 70 81 100 106 110 113 110 144 164 172 179 176 164 168 173 168 165 158 143 145 154 173 181 184 200
262 276 279 275 271 276 276 272 267 268 277 284 292 300 332 21 31 27 18 34 64 57 42 32 82 99 93 103 197 192 189 177 169 171 178 165 160 154 160 168 169 172 189 208
268 276 281 277 274 277 271 287 263 260 281 288 294 306 348 360 11 2 356 22 51 40 31 10 1 25 258 252 261 241 233 189 183 184 177 179 165 156 165 177 176 181 193 199
272 279 274 274 272 262 245 13 314 268 312 315 308 333 340 349 352 360 2 29 39 31 15 6 342 332 314 268 242 233 227 216 204 196 185 179 164 167 173 180 184 193 195 190
260 266 271 271 268 261 243 316 303 272 269 333 317 337 4 3 333 352 27 29 21 33 15 353 330 313 292 277 236 214 213 220 210 202 204 197 176 180 184 184 190 197 195 198
254 255 257 267 269 269 325 25 355 297 249 17 1 351 346 333 310 336 24 15 1 19 25 352 332 325 317 321 313 234 205 195 218 221 217 202 189 195 195 188 188 197 198 202
229 234 241 256 260 265 26 17 26 252 346 22 356 346 329 325 337 347 3 4 352 351 4 355 333 323 319 321 308 281 238 212 240 240 210 198 200 207 200 182 185 188 198 205
251 250 247 252 251 246 70 52 16 16 11 2 357 2 358 353 354 348 350 349 344 340 346 352 335 330 329 327 307 301 285 266 254 219 208 208 202 215 200 182 188 188 195 209
246 272 287 272 281 37 47 33 18 11 3 3 359 355 346 337 337 337 339 334 328 326 323 339 326 320 329 337 328 306 312 343 253 195 206 208 198 192 188 187 186 180 193 204
258 293 277 269 247 263 22 29 15 12 0 359 353 346 341 334 334 338 339 333 329 321 323 326 311 311 326 336 331 337 340 333 277 210 217 199 184 171 161 169 180 178 195 200
301 290 274 272 287 303 311 349 359 4 0 357 355 345 340 335 329 328 324 323 327 326 335 334 315 313 323 338 338 348 351 349 294 234 221 194 177 177 174 164 202 197 204 197
268 269 263 264 273 277 290 338 343 336 342 346 338 331 328 323 319 323 318 316 316 314 325 327 322 321 319 330 332 351 358 339 310 252 210 186 176 181 173 172 168 16 219 209